Seward, AK

7:45 PM AKDT on July 25, 2017 (GMT -0800)
Seward

Weather History for PAWD - July, 2013

Change the Weather History Date:

Thursday, July 25, 2013

  Actual Average Record
Temperature  
Mean Temperature 60 °F -  
Max Temperature 64 °F 63 °F 77 °F (1970)
Min Temperature 55 °F 49 °F 41 °F (1976)
Degree Days  
Heating Degree Days 6    
Growing Degree Days 10 (Base 50)    
Moisture  
Dew Point 55 °F    
Average Humidity 85    
Maximum Humidity 93    
Minimum Humidity 73    
Precipitation  
Precipitation 0.00 in - - ()
Sea Level Pressure  
Sea Level Pressure 30.05 in    
Wind  
Wind Speed 5 mph (South)    
Max Wind Speed 12 mph    
Max Gust Speed 18 mph    
Visibility 10 miles    
Events      
Averages and records for this station are not official NWS values.
T = Trace of Precipitation, MM = Missing Value Source: NWS Daily Summary

Daily Weather History Graph

Daily Weather History Graph

Search for Another Location

Airport or City:

Trip Planner

Search our weather history database for the weather conditions in past years. The results will help you decide how hot, cold, wet, or windy it might be!

Date:

Astronomy

Jul. 25, 2013 Rise Set
Actual Time 5:22 AM AKDT 10:44 PM AKDT
Civil Twilight 4:15 AM AKDT 11:50 PM AKDT
Nautical Twilight 2:36 AM AKDT 1:31 AM AKDT
Astronomical Twilight Sun does not set Sun does not set
Moon 11:03 PM AKDT (7/25) 10:21 AM AKDT (7/25)
Length of Visible Light 19h 35m
Length of Day
17h 22m
Waning Gibbous, 87% of the Moon is Illuminated
Jul 25
Waning Gibbous
Jul 29
Last Quarter
Aug 6
New
Aug 14
First Quarter
Aug 20
Full

Hourly Weather History & Observations

Time (AKDT) Temp. Dew Point Humidity Pressure Visibility Wind Dir Wind Speed Gust Speed Precip Events Conditions
12:53 AM 57.9 °F 55.0 °F 90% 30.02 in 10.0 mi SSE 4.6 mph - N/A   Overcast
1:53 AM 57.9 °F 55.0 °F 90% 30.03 in 10.0 mi South 6.9 mph - N/A   Overcast
2:53 AM 57.0 °F 55.0 °F 93% 30.03 in 10.0 mi Calm Calm - N/A   Overcast
3:53 AM 55.9 °F 54.0 °F 93% 30.03 in 10.0 mi Calm Calm - N/A   Overcast
4:22 AM 57.2 °F 53.6 °F 88% 30.02 in 10.0 mi ESE 3.5 mph - N/A   Overcast
4:53 AM 55.9 °F 54.0 °F 93% 30.03 in 10.0 mi Calm Calm - N/A   Overcast
5:53 AM 57.0 °F 54.0 °F 89% 30.03 in 9.0 mi Calm Calm - N/A   Overcast
6:53 AM 55.9 °F 54.0 °F 93% 30.04 in 8.0 mi Calm Calm - N/A   Overcast
7:53 AM 57.9 °F 55.0 °F 90% 30.04 in 10.0 mi Calm Calm - N/A   Overcast
8:53 AM 59.0 °F 55.0 °F 87% 30.04 in 10.0 mi Calm Calm - N/A   Overcast
9:35 AM 59.0 °F 55.4 °F 88% 30.04 in 10.0 mi Calm Calm - N/A   Overcast
9:53 AM 59.0 °F 55.0 °F 87% 30.04 in 10.0 mi South 3.5 mph - N/A   Overcast
10:53 AM 60.1 °F 55.0 °F 83% 30.05 in 10.0 mi SSW 4.6 mph - N/A   Overcast
11:53 AM 60.1 °F 55.0 °F 83% 30.05 in 10.0 mi South 5.8 mph - N/A   Overcast
12:53 PM 62.1 °F 55.9 °F 80% 30.05 in 10.0 mi South 9.2 mph - N/A   Overcast
1:37 PM 64.4 °F 55.4 °F 73% 30.05 in 10.0 mi SSW 11.5 mph - N/A   Partly Cloudy
1:53 PM 64.0 °F 55.9 °F 75% 30.05 in 10.0 mi SSW 10.4 mph - N/A   Clear
2:53 PM 64.0 °F 57.0 °F 78% 30.05 in 10.0 mi South 11.5 mph - N/A   Clear
3:53 PM 64.0 °F 57.0 °F 78% 30.05 in 10.0 mi South 10.4 mph 16.1 mph N/A   Clear
4:53 PM 64.0 °F 57.0 °F 78% 30.05 in 10.0 mi South 11.5 mph - N/A   Clear
5:53 PM 64.0 °F 55.9 °F 75% 30.05 in 10.0 mi South 8.1 mph 18.4 mph N/A   Clear
6:53 PM 63.0 °F 55.9 °F 78% 30.06 in 10.0 mi SSE 10.4 mph 18.4 mph N/A   Mostly Cloudy
7:53 PM 62.1 °F 55.9 °F 80% 30.07 in 10.0 mi SSE 10.4 mph - N/A   Overcast
8:53 PM 60.1 °F 55.9 °F 86% 30.08 in 10.0 mi SSE 11.5 mph - N/A   Overcast
9:53 PM 60.1 °F 55.9 °F 86% 30.10 in 10.0 mi Variable 5.8 mph - N/A   Overcast
10:53 PM 59.0 °F 55.9 °F 90% 30.12 in 10.0 mi South 4.6 mph - N/A   Overcast
11:05 PM 59.0 °F 55.4 °F 88% 30.11 in 10.0 mi Variable 4.6 mph - N/A   Overcast
11:53 PM 59.0 °F 55.9 °F 90% 30.12 in 10.0 mi South 5.8 mph - N/A   Overcast